Wind_Speed
7 5 9 21 14 15 16 18 20 18 12 4 6 6 9 10 8 8 9 9 10 14 18 25 38 36 40 41 42 38 34 29 26 27 27 25 25 23 19 18 16 18 19 15
7 15 15 16 17 18 18 20 22 13 7 11 11 10 9 8 8 9 10 11 11 7 8 17 32 35 38 38 40 40 38 34 28 24 24 24 25 21 18 17 16 16 17 16
18 7 20 19 19 19 18 13 11 8 7 12 13 18 8 8 11 9 10 11 12 13 11 17 18 31 35 36 39 41 38 32 26 23 23 24 21 21 19 17 17 16 15 15
16 16 18 19 20 18 18 13 10 8 6 6 4 11 3 9 12 14 16 16 16 14 13 19 20 27 33 34 38 40 36 31 27 26 27 31 25 21 18 19 17 16 15 15
9 9 8 13 15 15 19 14 10 8 8 7 3 7 4 7 9 14 14 13 17 21 20 22 22 31 33 38 39 39 33 28 28 25 35 32 27 20 23 22 19 16 15 13
18 14 14 13 14 10 8 4 8 5 3 14 8 6 2 3 8 12 16 21 16 5 20 18 22 28 28 31 32 35 32 25 24 26 24 22 21 23 30 25 21 18 15 13
16 21 18 18 19 16 5 3 2 3 5 8 9 9 9 7 11 13 15 18 21 17 16 16 16 13 21 24 27 29 30 26 29 23 21 17 18 32 30 26 23 21 17 14
10 7 20 13 22 8 12 9 5 5 5 5 4 6 4 7 7 10 16 18 20 18 13 12 10 15 21 28 30 25 26 28 27 23 15 17 25 28 23 23 26 20 16 15
4 6 8 10 4 7 23 11 15 12 7 3 4 3 3 4 10 13 13 14 15 15 15 10 7 12 16 21 24 22 20 25 23 20 19 22 23 25 24 25 23 19 15 14
3 4 3 1 5 5 4 3 4 3 4 5 4 4 3 7 6 10 10 9 10 10 13 10 7 14 18 22 21 19 16 22 21 21 22 22 22 22 22 21 20 16 14 14
4 3 3 5 2 3 2 1 3 6 3 1 2 1 4 10 8 8 8 8 8 7 8 8 7 17 22 24 23 20 17 24 24 22 21 20 20 18 16 15 14 14 15 14
2 3 2 6 4 5 2 4 5 2 4 4 2 2 3 9 9 7 6 5 6 4 6 6 8 15 19 23 25 22 27 25 24 23 21 19 16 15 14 15 14 13 13 12
1 2 1 4 4 5 6 4 3 1 1 5 3 3 3 5 5 4 4 4 4 7 5 6 6 10 17 21 25 25 27 27 27 25 22 21 19 19 19 19 17 15 14 12
6 5 6 5 4 4 3 4 5 6 2 1 7 1 3 4 3 5 6 8 7 8 8 6 6 7 17 22 25 26 26 28 25 23 22 21 20 21 20 19 20 19 16 14
6 6 7 10 8 6 7 5 12 8 8 9 18 8 15 10 11 12 11 10 10 11 8 7 7 7 17 21 23 26 28 29 28 24 22 22 23 22 21 20 19 17 17 17
4 4 5 9 11 10 6 13 12 14 15 14 15 16 16 12 7 9 12 9 10 10 8 8 7 9 13 19 24 29 32 31 29 27 25 26 27 23 23 21 21 21 19 14
3 3 3 9 10 6 8 23 18 18 14 15 13 19 16 11 13 14 14 10 7 9 7 9 9 6 13 20 27 26 30 30 28 24 23 25 25 28 26 25 24 21 18 22
5 8 5 5 5 13 9 10 17 19 19 13 16 19 17 15 14 16 8 9 11 9 9 7 6 10 8 4 8 24 27 27 27 25 27 28 29 29 28 27 24 23 24 21
14 8 4 4 8 4 4 13 12 10 18 17 21 9 8 3 4 6 4 9 10 8 5 8 8 6 4 2 2 23 27 29 30 29 32 32 31 30 29 27 27 25 24 22
15 12 10 4 5 11 14 20 12 7 9 18 4 7 7 2 0 4 6 7 7 11 15 10 7 6 5 6 9 20 26 29 27 31 34 33 31 31 30 30 29 27 25 20
4 11 16 10 10 5 13 3 2 9 11 9 9 12 12 7 5 8 9 6 7 9 11 9 7 6 6 5 8 10 14 17 21 25 26 27 29 30 32 31 30 27 23 20
6 3 4 11 13 20 6 2 11 9 4 2 6 6 6 10 7 7 6 6 7 6 11 13 11 9 9 8 9 11 14 16 19 21 23 24 25 26 28 29 28 26 23 22
8 6 8 8 4 6 5 4 6 5 11 11 6 7 14 12 7 9 6 6 5 6 9 16 19 14 11 10 11 14 14 17 19 22 24 25 25 26 28 27 26 25 26 23
2 7 3 7 8 16 13 14 7 6 4 9 9 8 15 11 13 10 9 7 6 8 9 7 20 16 14 11 11 13 16 18 21 23 23 25 26 26 27 27 26 23 23 22
4 1 5 11 13 16 8 10 12 14 4 4 12 7 13 14 12 8 8 7 7 10 13 14 18 17 16 15 11 12 15 19 21 21 22 23 25 26 25 24 25 23 24 25
9 8 4 9 14 11 17 17 11 9 15 10 22 5 8 10 13 10 8 10 13 12 14 14 14 19 19 18 14 14 15 19 22 21 22 23 23 24 24 23 20 20 21 21
Wind_Direction
194 182 209 229 228 235 248 264 273 271 279 298 267 272 263 237 221 241 247 210 208 191 193 167 166 158 148 152 153 155 153 157 160 157 156 152 150 150 149 149 145 143 144 137
236 226 221 241 245 249 242 249 262 276 317 322 309 282 268 258 232 221 220 220 196 182 163 158 157 147 149 148 149 154 156 160 167 172 169 165 155 153 152 150 147 144 147 148
235 220 220 232 248 253 258 262 268 261 287 293 301 290 295 281 268 253 231 209 204 187 165 150 141 144 143 147 149 153 157 161 167 173 178 167 158 149 146 154 147 146 146 142
249 236 242 256 244 247 253 260 286 301 305 264 44 293 282 275 277 272 257 237 205 189 160 148 144 147 147 147 149 157 163 166 168 181 188 172 158 154 171 158 150 140 138 136
232 302 291 271 269 268 273 284 281 283 294 314 127 292 132 236 260 277 344 255 212 193 157 155 153 145 144 149 153 159 163 167 175 178 176 174 170 177 166 159 150 143 140 143
263 272 248 260 278 307 336 337 316 285 264 263 158 208 327 299 343 30 22 23 21 94 137 131 132 131 137 142 148 156 160 166 169 167 175 185 185 176 160 157 152 147 147 144
251 257 264 259 271 274 250 357 303 299 213 251 189 221 244 62 39 45 41 35 31 76 107 114 121 119 123 135 145 154 163 171 172 163 175 194 191 171 169 167 160 160 154 145
218 262 231 233 226 235 235 197 189 215 224 284 38 249 115 101 66 58 54 52 46 54 74 88 96 114 127 150 157 150 165 164 166 173 165 187 179 173 173 170 169 169 165 156
217 229 349 55 171 239 228 214 225 254 296 303 240 97 273 91 65 57 53 58 56 55 50 52 92 112 127 140 148 143 133 154 161 157 150 148 158 163 165 163 168 171 167 160
192 301 336 58 20 358 118 95 47 71 208 212 254 207 157 104 116 70 54 51 81 87 79 44 52 103 120 137 133 139 142 145 144 146 148 144 150 153 152 155 156 162 160 158
88 137 277 21 190 213 85 242 226 140 154 243 307 75 89 61 62 78 62 43 32 66 122 142 145 137 145 152 154 154 154 145 139 142 146 150 147 155 162 167 169 162 159 161
56 107 208 246 324 7 57 37 27 135 195 219 135 228 96 111 103 85 56 35 7 35 108 129 151 156 151 154 157 154 152 151 154 155 155 156 161 166 168 160 160 161 159 161
3 20 32 317 313 62 81 47 59 31 290 239 240 199 160 79 81 54 45 337 334 299 253 164 139 158 154 154 157 157 161 161 161 166 170 174 179 178 174 170 167 170 167 175
113 183 200 219 192 147 141 212 140 131 149 318 249 257 235 248 231 261 244 244 255 250 251 200 169 146 151 154 156 159 164 167 169 174 180 178 181 181 181 179 178 182 178 171
148 219 221 240 229 174 183 180 196 194 213 200 249 241 261 252 209 228 227 232 237 239 233 191 173 152 154 155 163 169 174 177 182 188 192 192 189 196 190 182 179 164 171 174
181 244 205 251 250 233 193 220 224 217 222 229 252 260 256 251 244 253 259 233 224 220 215 202 171 167 146 158 170 177 181 187 194 190 188 189 187 189 184 183 171 175 178 183
310 196 194 237 231 258 259 232 221 227 230 210 221 237 254 247 239 243 250 220 195 79 91 90 88 86 170 174 189 187 189 193 191 188 186 186 194 189 188 181 178 175 171 169
199 224 236 230 154 228 235 233 239 227 240 234 230 242 248 246 244 234 211 127 106 106 106 94 86 87 88 151 230 206 194 190 192 186 186 196 194 188 190 183 179 177 174 179
211 202 251 212 196 292 290 235 218 205 234 235 238 245 238 246 83 17 85 138 141 139 130 125 122 118 103 84 130 177 178 184 188 185 187 192 192 184 181 177 179 180 178 174
223 234 221 208 211 226 227 249 261 269 273 245 122 250 236 208 231 227 154 120 121 136 145 156 148 140 139 136 163 173 177 181 181 183 189 196 194 187 180 181 182 181 182 176
242 228 230 238 240 257 254 219 204 220 249 226 216 246 250 215 206 158 143 130 137 143 142 152 153 129 113 129 163 164 174 176 186 189 191 192 191 187 187 181 180 179 174 170
248 240 248 235 237 244 242 245 219 242 281 141 178 158 107 131 124 121 124 140 150 165 176 173 161 170 175 206 196 178 190 199 197 195 192 189 187 184 182 177 173 170 171 170
259 228 251 232 228 272 308 303 331 294 239 226 197 164 145 143 160 162 172 179 195 204 193 186 179 177 179 196 205 186 196 199 192 188 185 184 187 183 177 168 162 162 169 167
251 9 292 340 322 274 265 275 290 290 310 264 227 174 150 157 167 173 168 176 176 198 224 200 155 161 170 188 202 210 197 196 190 178 176 178 173 169 169 170 170 168 170 171
204 356 274 300 291 331 348 342 332 301 249 336 318 240 157 152 172 162 172 178 183 190 215 206 168 166 173 174 191 200 199 194 180 174 170 168 167 167 165 170 176 180 182 184
245 237 221 259 257 231 267 283 293 312 302 219 220 145 153 161 160 166 177 184 177 191 208 182 171 172 170 171 176 192 200 199 181 167 167 167 165 165 164 168 172 192 197 197
Height
757 774 778 765 764 760 758 757 754 738 725 726 727 728 724 713 712 713 712 712 712 711 710 714 722 730 737 747 755 763 771 782 789 793 796 799 800 801 803 804 806 808 809 811
762 763 755 752 751 750 750 754 750 733 720 723 729 727 718 712 710 704 705 706 705 705 708 714 720 726 735 743 751 759 767 775 784 793 798 800 800 803 804 805 807 808 809 810
759 744 739 746 746 747 743 746 744 740 726 724 728 719 720 708 701 698 694 690 692 696 703 709 719 727 733 741 747 755 765 773 782 791 797 801 803 804 805 806 806 807 808 809
743 735 737 739 741 740 748 729 728 732 740 760 731 742 723 711 705 698 690 684 685 687 691 702 713 722 728 738 746 753 761 769 776 784 790 795 797 802 804 806 808 809 810 811
738 737 739 738 734 729 735 723 727 731 740 749 743 756 729 705 707 697 699 682 675 673 682 696 706 714 725 733 742 750 758 766 774 779 783 790 795 799 802 805 808 809 811 812
735 727 730 729 720 721 721 726 730 735 739 750 745 755 733 722 715 713 703 696 686 679 686 700 711 719 727 735 743 751 759 766 774 780 785 789 793 797 800 805 807 809 810 810
740 734 724 722 732 723 727 745 769 771 761 757 726 740 731 726 722 716 713 712 700 691 702 711 718 726 733 740 747 754 761 767 773 778 784 788 793 795 799 802 805 807 808 810
748 748 722 709 721 730 727 737 769 775 773 748 730 739 731 723 722 717 717 720 714 714 719 725 731 733 739 743 748 754 759 764 770 776 781 784 788 793 797 800 803 805 808 809
732 726 703 703 710 715 719 735 732 744 745 756 747 732 725 721 725 726 727 727 730 731 732 735 738 740 744 748 751 756 762 768 772 775 779 783 788 792 795 798 801 804 807 809
715 733 712 706 707 706 714 715 758 762 768 771 746 738 744 731 732 734 735 734 734 737 740 743 743 746 749 752 756 760 765 769 773 776 779 782 788 792 796 799 801 804 807 810
711 726 728 717 723 725 724 735 734 748 763 765 764 758 737 738 738 741 742 742 741 740 743 744 745 747 751 753 756 761 765 769 772 775 779 784 789 792 795 798 802 805 808 811
721 728 741 730 717 716 724 738 742 757 756 756 759 755 734 735 736 741 744 742 742 741 742 745 746 748 748 751 756 760 765 769 771 774 778 784 789 792 796 799 803 807 811 810
727 740 750 740 729 729 743 749 749 755 754 756 762 759 740 739 739 741 744 742 742 742 741 740 742 746 749 753 756 760 764 768 770 772 776 781 785 789 793 797 802 807 807 813
724 734 742 748 749 753 755 753 752 760 778 770 762 753 750 744 742 741 742 740 741 740 739 740 740 743 747 750 755 759 763 767 771 774 777 780 784 789 793 796 799 802 808 812
728 740 735 732 733 743 747 748 750 755 749 759 743 750 737 736 736 737 734 733 735 733 733 734 737 739 744 749 753 756 759 763 767 773 777 781 782 787 791 796 798 801 806 811
728 743 731 733 726 727 739 738 737 742 741 745 743 743 727 729 727 727 725 726 726 726 727 728 731 735 741 744 749 751 754 758 763 767 770 774 778 789 792 794 797 800 805 805
736 739 740 735 726 731 740 721 727 726 727 730 742 726 718 723 720 719 718 717 719 725 726 731 736 736 739 742 745 748 751 757 760 765 771 775 780 784 788 791 796 800 802 806
734 735 739 733 735 740 713 706 705 714 711 712 713 710 710 709 708 705 709 716 720 724 727 731 735 740 741 743 744 745 749 753 759 764 768 774 777 781 785 787 795 798 801 804
723 734 733 725 724 715 708 697 705 708 709 704 700 703 702 700 703 715 713 711 716 724 729 732 734 737 740 740 740 742 747 751 756 760 764 770 774 779 784 789 793 797 800 804
717 717 724 728 717 717 701 686 693 700 715 688 694 698 701 698 725 732 716 716 720 720 724 730 732 735 737 739 741 743 745 748 752 756 759 764 770 775 780 784 789 794 798 801
726 717 716 718 714 712 686 684 684 714 699 685 688 690 694 701 706 709 714 718 720 722 724 728 731 734 738 741 743 746 748 749 752 757 760 765 769 773 777 781 786 791 796 800
722 732 717 710 709 709 678 683 698 690 684 679 683 687 695 700 710 713 717 719 721 722 725 726 730 733 737 740 743 745 748 750 753 756 760 764 769 772 776 781 784 788 794 799
728 716 715 709 707 687 681 687 685 683 680 679 680 682 688 701 709 714 718 720 721 724 723 722 726 731 736 738 741 742 745 748 751 754 758 761 766 770 774 779 783 787 792 795
717 719 720 711 692 687 681 680 682 684 684 675 674 676 682 698 704 710 714 716 717 718 721 721 722 727 731 735 738 741 743 746 749 752 756 759 763 769 773 777 783 786 789 793
721 718 721 720 711 702 686 692 690 685 679 676 677 678 678 686 696 699 705 708 710 712 717 718 720 723 728 732 736 739 742 744 748 751 755 758 762 767 771 776 780 784 787 790
711 712 717 709 705 712 701 694 692 689 683 676 682 672 674 677 682 691 697 699 702 706 710 714 717 720 725 729 733 738 740 743 746 749 752 756 761 765 770 774 780 784 787 790